Location: Newark
(45.9456°N, 15.4064°E)
Time: 18:49:49
(UTC+00:00)

Vanguard 3 - Pass Details

Date: 24 January 2020
Orbit: 508 x 3263 km, 33.3° (Epoch: 17 February)

Event Time Altitude Azimuth Distance (km) Brightness Sun altitude
Rises 21:39:24 0° 274° (W) 6,863 12.2 -57.3°
Reaches altitude 10° 21:45:08 10° 266° (W) 5,500 11.5 -58.0°
Enters shadow 21:50:50 21° 251° (WSW) 4,183 10.7 -58.6°
Maximum altitude 21:57:25 31° 214° (SSW) 3,085 - -59.3°
Drops below altitude 10° 22:05:28 10° 156° (SSE) 3,537 - -60.1°
Sets 22:08:17 0° 145° (SE) 4,171 - -60.3°
